Flag Weather past 2 weeks in Khon Kaen, Thailand

Now
70 °F

Clear.


Feels Like: 70 °F
Forecast: 70 / 89 °F
Wind: 5 mph from Northwest

Location: Khon Kaen Airport

Current Time: Nov 25, 2014 at 4:48:33 AM

Latest Report: Nov 25, 2014 at 4:00 AM


Visibility: 6 mi

Pressure: 29.86 "Hg

Humidity: 78%

Dew point: 63 °F

Location of Khon KaenLocation

Historic Weather in Khon Kaen — Graph

°F

Khon Kaen temperature yesterday

Maximum temperature yesterday: 91 °F (at 2:00 PM)
Minimum temperature yesterday: 64 °F (at 6:00 AM)
Average temperature yesterday: 79 °F

Past Weeks' High & Low Weather Summary

 TemperatureHumidityPressure
High93 °F (Nov 11, 1:00 PM)94% (Nov 10, 3:00 AM)30.09 "Hg (Nov 10, 3:00 AM)
Low64 °F (Nov 19, 4:00 AM)32% (Nov 23, 2:00 PM)29.80 "Hg (Nov 11, 4:00 PM)
Average79 °F64%29.94 "Hg
* Reported Nov 10 3:00 AM — Nov 25 3:00 AM, Khon Kaen, Weather by CustomWeather, © 2014

Note: Actual official high and low records may vary slightly from our data, if they occured in-between our weather recording intervals... More about our weather records

Advertising

Khon Kaen weather history for previous 24 hours

 ConditionsComfort  
Time TempWeatherWind HumidityBarometerVisibility
3:00 AM
Nov 25
68 °FClear.2 mph83%29.86 "Hg6 mi
2:00 AM70 °FClear.5 mph78%29.86 "Hg6 mi
1:00 AM72 °FClear.1 mph73%29.86 "Hg6 mi
12:00 AM70 °FClear.No wind78%29.89 "Hg6 mi
11:00 PM
Nov 24
73 °FClear.3 mph69%29.89 "Hg6 mi
10:00 PM77 °FClear.5 mph57%29.89 "Hg5 mi
9:00 PM79 °FClear.6 mph54%29.86 "Hg5 mi
8:00 PM79 °FClear.5 mph58%29.86 "Hg5 mi
7:00 PM81 °FClear.3 mph54%29.86 "Hg5 mi
6:00 PM82 °FClear.2 mph48%29.83 "Hg6 mi
5:00 PM88 °FSunny.3 mph38%29.83 "Hg10 mi
4:00 PM90 °FPassing clouds.5 mph33%29.80 "HgN/A
3:00 PM91 °FPassing clouds.3 mph34%29.83 "HgN/A
2:00 PM91 °FSunny.3 mph32%29.83 "Hg10 mi
1:00 PM90 °FSunny.6 mph36%29.86 "Hg10 mi
12:00 PM88 °FPassing clouds.7 mph38%29.92 "HgN/A
11:00 AM86 °FPassing clouds.5 mph46%29.95 "HgN/A
10:00 AM82 °FSunny.5 mph55%29.95 "Hg10 mi
9:00 AM79 °FClear.6 mph61%29.95 "Hg6 mi
8:00 AM75 °FClear.5 mph69%29.95 "Hg6 mi
7:00 AM68 °FClear.3 mph83%29.92 "Hg5 mi
6:00 AM64 °FClear.No wind94%29.89 "Hg4 mi
4:00 AM68 °FClear.5 mph83%29.86 "Hg6 mi
Weather by CustomWeather, © 2014

See weather overviewHow to use our weather pages